Hourly Data Report for June 03, 2021

GAMETI
NORTHWEST TERRITORIES
Current Station Operator: ECCC - MSC

64°06'42.078" N
117°19'40.086" W
221.00 m
2203359
71165
WYH

Download Data

Hourly Data (June 2021)
Hourly Data Report for June 3, 2021
TIME
LST
Temp Definition
°C
Dew Point Definition
°C
Rel Hum Definition
%
Precip. Amount Definition
mm

Wind Dir Definition
10's deg

Wind Spd Definition
km/h
Visibility Definition
km
Stn Press Definition
kPa
Hmdx Definition


Wind Chill Definition


Weather Definition


00:00 8.1 5.7 85 LegendMM 8 12   97.75     LegendNANA
01:00 7.5 5.7 88 LegendMM 5 8   97.75     LegendNANA
02:00 7.1 5.7 91 LegendMM 7 10   97.71     LegendNANA
03:00 6.5 5.5 93 LegendMM 8 14   97.68     LegendNANA
04:00 6.4 5.4 93 LegendMM 6 12   97.61     LegendNANA
05:00 6.4 4.9 91 LegendMM 4 8   97.61     LegendNANA
06:00 6.5 4.7 88 LegendMM 8 8   97.58     LegendNANA
07:00 6.8 4.6 86 LegendMM 4 11   97.49     LegendNANA
08:00 6.7 4.3 84 LegendMM 1 7   97.45     LegendNANA
09:00 8.7 5.3 79 LegendMM 7 8   97.42     LegendNANA
10:00 8.8 4.7 76 LegendMM 4 8   97.38     LegendNANA
11:00 8.6 6.0 84 LegendMM 4 8   97.34     LegendNANA
12:00 9.4 6.9 84 LegendMM 7 8   97.32     LegendNANA
13:00 9.1 7.4 89 LegendMM 7 6   97.31     LegendNANA
14:00 8.7 7.1 89 LegendMM 8 13   97.29     LegendNANA
15:00 8.9 7.4 90 LegendMM 9 11   97.26     LegendNANA
16:00 8.8 7.3 90 LegendMM 8 8   97.25     LegendNANA
17:00 8.6 7.3 92 LegendMM 7 8   97.24     LegendNANA
18:00 8.6 7.8 94 LegendMM 6 6   97.21     LegendNANA
19:00 8.2 7.6 96 LegendMM 6 8   97.19     LegendNANA
20:00 7.5 6.9 95 LegendMM 5 11   97.18     LegendNANA
21:00 6.9 6.3 96 LegendMM 5 7   97.18     LegendNANA
22:00 6.5 6.0 97 LegendMM 6 8   97.21     LegendNANA
23:00 6.3 5.8 97 LegendMM 5 8   97.17     LegendNANA

Notes on Data Quality.

Legend

  • E = Estimated
  • M = Missing
  • NA = Not Available*
  • [empty] = Indicates an unobserved value
Date modified: